Tracking 17782 objects as of 26-July-2016
HD Live streaming from Space Station
objects crossing your sky now

COSMOS 2251 DEB

Track COSMOS 2251 DEB now!
10-day predictions


NORAD ID: 34781
Int'l Code: 1993-036AAJ
Perigee: 487.8 km
Apogee: 512.2 km
Inclination: 74.0 °
Period: 94.5 minutes
Semi major axis: 6870 km
RCS: 0.0067 m2 (small)
Launch date: June 16, 1993
Source: Commonwealth of Independent States (former USSR) (CIS)
Launch site: PLESETSK MISSILE AND SPACE COMPLEX (PKMTR)

Note: This is SATELLITE DEBRIS
Your satellite tracking list
Your tracking list is empty





NASA's NSSDC Master Catalog

Two Line Element Set (TLE):
1 34781U 93036AAJ 16208.41473402  .00024145  00000-0  98164-3 0  9993
2 34781  74.0346 200.7645 0017789 206.3753 153.6543 15.24312054392256
Source of the keplerian elements: AFSPC

N2YO: 1118